默认 日期 大小 文件数 浏览量 最新下载 xml
block磁力链接相关资源由用户搜索指令自动获取,结果来源于网络,本站不存储任何资料,亦不承担任何责任,请于24小时内删除,搜索到7218个磁力,显示前4000条数据,用时5ms。
    ... and Z-Trip -Attack the Block-2012-DjLeak.m3u": 1534, "00_Talib ... and Z-Trip -Attack the Block-2012-DjLeak.nfo": 2520, "00_Talib ... and Z-Trip -Attack the Block-2012-DjLeak.sfv": 6249, "01_Talib ... and Z-Trip - Attack the Block-Djleak.com.mp3": 6777790, "00_Talib ...
创建时间: 2020-04-30 21:16:12 大小:160.9 MB 文件数量:22 热度:9 最近下载:2025-08-01 09:30:08
    {"07. The Obelisk (Instrumental).mp3": 6183778, "03. The Whistler (Instrumental).mp3": 7589168, "06. The Obelisk (feat. Blacastan).mp3": 6183784, "05. The Obelisk (feat. Blacastan) [Explicit].mp3": 6111686, "08. The Obelisk (Acapella) [feat. Blacastan].mp3 ...
创建时间: 2020-05-01 18:15:12 大小:52.44 MB 文件数量:8 热度:3 最近下载:2024-01-01 20:15:02
    ... }, "PornFidelity.E792.Jewelz.Blu.Writers.Block.XXX.XviD-iPT Team.avi ... , "PornFidelity.E792.Jewelz.Blu.Writers.Block.XXX.XviD-iPT Team.nfo ...
创建时间: 2020-05-01 19:22:59 大小:352.94 MB 文件数量:12 热度:10 最近下载:2024-10-28 18:52:02
    {"VIDEO_TS": {"VIDEO_TS.BUP": 12288, "VIDEO_TS.IFO": 12288, "VTS_01_0.BUP": 59392, "VTS_01_0.IFO": 59392, "VTS_01_0.VOB": 96813056, "VTS_01_1.VOB": 1073739776, "VTS_01_2.VOB": 1073739776, "VTS_01_3.VOB": 1073739776, "VTS_01_4.VOB": 1073739776, "VTS_01_5. ...
创建时间: 2020-05-01 21:36:33 大小:4.37 GB 文件数量:20 热度:3 最近下载:2024-01-01 20:55:03
    {"Screens": {"screen0001.png": 4431701, "screen0002.png": 2697177, "screen0003.png": 3794813}, "www.Torrenting.com.txt": 102, "The.Block.NZ.S08E47.720p.HEVC.x265-MeGusta.mkv": 478734696, "The.Block.NZ.S08E47.720p.HEVC.x265-MeGusta.nfo": 1131}
创建时间: 2020-05-02 04:19:49 大小:466.98 MB 文件数量:6 热度:3 最近下载:2024-01-01 22:17:06
    {"Prisoner.ep129.DVDRip.XviD.avi": 366010402, "Prisoner.ep130.DVDRip.XviD.avi": 365954468, "Prisoner.ep131.DVDRip.XviD.avi": 365960880, "Prisoner.ep132.DVDRip.XviD.avi": 366099286, "Prisoner.ep133.DVDRip.XviD.avi": 366051624, "Prisoner.ep134.DVDRip.XviD. ...
创建时间: 2020-05-03 06:16:40 大小:5.45 GB 文件数量:16 热度:4 最近下载:2025-03-24 01:43:02
    ... Belt.wma": 12969749, "02. Block To Block.wma": 17246351, "13. Transparant Tlf ... .lnk": 596, "De Press - Block To Block.jpg": 193480, "Fallen Angel auratorrentpl ...
创建时间: 2020-05-03 13:09:38 大小:225.94 MB 文件数量:22 热度:3 最近下载:2024-01-02 02:36:05
    {"Attack.the.Block.2011.720p.BDRip.x264.AC3-Zoo.mkv": 2202010579, "Attack.the.Block.2011.720p.BDRip.x264.AC3-Zoo.nfo": 590, "Attack.the.Block.2011.720p.BDRip.x264.AC3-Zoo.sub.rar": 1806611}
创建时间: 2020-05-04 12:46:48 大小:2.05 GB 文件数量:3 热度:3 最近下载:2023-04-22 21:30:30
    ... Gino Marley).mp3": 8694827, "Treize Block - Violence Urbaine Emeute.m3u": 969 ...
创建时间: 2020-05-04 19:52:45 大小:159.18 MB 文件数量:18 热度:8 最近下载:2025-09-19 04:39:10
    ... ": 1189922, "screen0004.png": 1296431}, "The.Block.NZ.S06E03.720p.HEVC.x265 ... -MeGusta.mkv": 534402931, "The.Block.NZ.S06E03.720p.HEVC.x265 ...
创建时间: 2020-05-04 22:10:10 大小:514.51 MB 文件数量:7 热度:4 最近下载:2023-04-22 23:02:01
    {"Cd1": {"c-ubb1.cue": 72, "03-fog_90bpm": {"backing": {"bac090_fog.wav": 5644884}, "complete mix": {"mix090_fog.wav": 5644884}, "drum samples": {"bse-kick_fog.wav": 29484, "sde-snare_fog.wav": 29484, "chh-closedhihat01_fog.wav": 29484, "chh- ...
创建时间: 2020-05-09 10:49:23 大小:1.14 GB 文件数量:646 热度:4 最近下载:2025-09-15 19:51:07
    {"VHS2.mp4": 1553795664, "VHS2.mpg": 8016891904, "VHS2.ogv": 1113287581, "__ia_thumb.jpg": 8976, ".____padding_file": {"0": 4182016, "2": 2617344, "3": 2291120, "4": 2397283, "5": 4185328, "6": 4192768}, "VHS-1991-CBS-Block_meta.xml": 1536, "VHS-1991-CBS- ...
创建时间: 2020-05-09 13:46:31 大小:9.97 GB 文件数量:12 热度:3 最近下载:2022-04-08 06:42:05
    ... judgement day.mp3": 4802181, "rory block - the lady and mr. ... johnson - cover.jpg": 328908, "rory block - the lady and mr. johnson ... back cover.jpg": 431821, "rory block - the lady and mr. johnson ... tray inlay.jpg": 314465, "rory block - the lady and mr. johnson ...
创建时间: 2020-05-09 14:16:06 大小:64.02 MB 文件数量:20 热度:9 最近下载:2025-08-04 03:07:04
    ... .ffp.txt": 1052, "Rory Block 1988-09-20 Bremen-01 ... .flac": 16818646, "Rory Block 1988-09-20 Bremen-02 ... .flac": 18909063, "Rory Block 1988-09-20 Bremen-03 ... .flac": 16231897, "Rory Block 1988-09-20 Bremen-04 ... .flac": 23665676, "Rory Block 1988-09-20 Bremen-05 ...
创建时间: 2020-05-09 17:53:18 大小:319.65 MB 文件数量:18 热度:6 最近下载:2025-03-19 02:39:02
    {"Lawrence Block - È Tempo Di Uccidere (Ita Libro).pdf": 480421, "Lawrence Block - È Tempo Di Uccidere (Ita Libro).epub": 243655, "Lawrence Block - È Tempo Di Uccidere (Ita Libro).mobi": 532639}
创建时间: 2020-05-09 23:40:42 大小:1.2 MB 文件数量:3 热度:3 最近下载:2022-04-08 06:18:33
    ... .tv.mp4": 102848904, "Elba.vs.Block.s01e02.TSRip.x264.Rus.BaibaKo ... .tv.mp4": 87142820, "Elba.vs.Block.s01e03.TSRip.x264.Rus.BaibaKo ... .tv.mp4": 73106131, "Elba.vs.Block.s01e04.TSRip.x264.Rus.BaibaKo ... tv.mp4": 79731973, "Elba.vs.Block.s01e05.TSRip.x264.Rus.BaibaKo ...
创建时间: 2020-05-10 14:12:19 大小:664.19 MB 文件数量:8 热度:4 最近下载:2023-04-24 19:40:40
    ... ": 1080869, "screen0004.png": 1018839}, "The.Block.AU.S14E28.720p.HEVC.x265 ... -MeGusta.mkv": 486789579, "The.Block.AU.S14E28.720p.HEVC.x265 ...
创建时间: 2020-05-18 14:24:13 大小:468.13 MB 文件数量:7 热度:3 最近下载:2023-04-24 20:50:24
    {"RARBG.txt": 30, "RARBG_DO_NOT_MIRROR.exe": 99, "The.Zoo.US.S04E08.New.Chick.on.the.Block.HDTV.x264-CRiMSON.mkv": 329893906, "the.zoo.us.s04e08.new.chick.on.the.block.hdtv.x264-crimson.nfo": 471}
创建时间: 2020-05-18 14:43:09 大小:314.61 MB 文件数量:4 热度:3 最近下载:2023-04-24 21:10:12
    {"iNFO [theodyssey.cc].txt": 4566, "Cell.Block.99.Nessuno.Puo.Fermarmi.2017.FullHD.1080p.Bluray.iTA.AC3.ENG.DTS.AC3.AVC-ODS.mkv": 12480170435}
创建时间: 2020-05-18 18:11:35 大小:11.62 GB 文件数量:2 热度:3 最近下载:2023-04-24 23:40:20
    ... . Create single block chart!": {"3. Exercise Single block chart.mp4": ... the multiple block chart": {"4. Exercise Multiple block chart.mp4 ... "5. Answers Exercise Multiple block chart.mp4": 175882634, "5 ... . Answers Exercise Multiple block chart.srt": 20250, "1 ...
创建时间: 2020-05-18 18:14:32 大小:787.2 MB 文件数量:29 热度:6 最近下载:2025-02-21 10:57:02